Time,TemperatureF,DewpointF,PressureIn,WindDirection,WindDirectionDegrees,WindSpeedMPH,WindSpeedGustMPH,Humidity,HourlyPrecipIn,Conditions,Clouds,dailyrainin,SoftwareType,DateUTC
2013-01-31 00:00:00,24.7,22.7,29.57,West,270,19.7,27.5,92,0.00,,,0.00,WUHU216HW,2013-01-31 05:00:00,
2013-01-31 00:06:00,24.5,22.7,29.57,WNW,293,18.3,28.9,93,0.00,,,0.00,WUHU216HW,2013-01-31 05:06:00,
2013-01-31 00:11:00,24.3,22.3,29.57,WNW,293,22.1,28.9,92,0.00,,,0.00,WUHU216HW,2013-01-31 05:11:00,
2013-01-31 00:16:00,24.5,22.5,29.58,West,270,19.5,22.1,92,0.00,,,0.00,WUHU216HW,2013-01-31 05:16:00,
2013-01-31 00:21:00,24.5,22.0,29.57,WNW,293,17.2,21.9,90,0.00,,,0.00,WUHU216HW,2013-01-31 05:21:00,
2013-01-31 00:26:00,24.5,21.4,29.57,WNW,293,22.4,25.1,88,0.00,,,0.00,WUHU216HW,2013-01-31 05:26:00,
2013-01-31 00:31:00,24.3,20.7,29.57,West,270,21.5,25.1,86,0.00,,,0.00,WUHU216HW,2013-01-31 05:31:00,
2013-01-31 00:36:00,24.1,20.8,29.58,West,270,18.3,22.1,87,0.00,,,0.00,WUHU216HW,2013-01-31 05:36:00,
2013-01-31 00:41:00,24.1,21.1,29.58,West,270,21.5,22.1,88,0.00,,,0.00,WUHU216HW,2013-01-31 05:41:00,
2013-01-31 00:46:00,23.8,21.0,29.58,West,270,21.5,22.6,89,0.00,,,0.00,WUHU216HW,2013-01-31 05:46:00,
2013-01-31 00:51:00,23.8,21.5,29.59,West,270,24.4,24.4,91,0.00,,,0.00,WUHU216HW,2013-01-31 05:51:00,
2013-01-31 00:56:00,23.8,21.5,29.59,WSW,248,23.7,24.4,91,0.00,,,0.00,WUHU216HW,2013-01-31 05:56:00,
2013-01-31 01:01:00,23.6,21.1,29.59,WSW,248,18.3,23.7,90,0.00,,,0.00,WUHU216HW,2013-01-31 06:01:00,
2013-01-31 01:06:00,23.6,20.8,29.59,WNW,293,22.4,22.4,89,0.00,,,0.00,WUHU216HW,2013-01-31 06:06:00,
2013-01-31 01:11:00,23.6,20.8,29.59,West,270,20.4,23.0,89,0.00,,,0.00,WUHU216HW,2013-01-31 06:11:00,
2013-01-31 01:16:00,23.8,20.7,29.60,WNW,293,17.2,23.0,88,0.00,,,0.00,WUHU216HW,2013-01-31 06:16:00,
2013-01-31 01:21:00,23.8,20.4,29.60,West,270,19.2,23.3,87,0.00,,,0.00,WUHU216HW,2013-01-31 06:21:00,
2013-01-31 01:26:00,23.8,19.9,29.60,WNW,293,20.8,23.3,85,0.00,,,0.00,WUHU216HW,2013-01-31 06:26:00,
2013-01-31 01:31:00,23.8,20.2,29.61,WNW,293,26.2,28.2,86,0.00,,,0.00,WUHU216HW,2013-01-31 06:31:00,
2013-01-31 01:36:00,23.4,19.5,29.61,WSW,248,18.6,28.2,85,0.00,,,0.00,WUHU216HW,2013-01-31 06:36:00,
2013-01-31 01:41:00,23.4,18.7,29.61,WNW,293,24.2,28.2,82,0.00,,,0.00,WUHU216HW,2013-01-31 06:41:00,
2013-01-31 01:46:00,23.4,18.7,29.62,WNW,293,28.2,30.2,82,0.00,,,0.00,WUHU216HW,2013-01-31 06:46:00,
2013-01-31 01:51:00,23.4,18.7,29.62,West,270,18.8,30.2,82,0.00,,,0.00,WUHU216HW,2013-01-31 06:51:00,
2013-01-31 01:56:00,23.4,18.7,29.62,WNW,293,17.9,25.5,82,0.00,,,0.00,WUHU216HW,2013-01-31 06:56:00,
2013-01-31 02:01:00,23.2,18.0,29.62,WNW,293,18.8,25.5,80,0.00,,,0.00,WUHU216HW,2013-01-31 07:01:00,
2013-01-31 02:06:00,23.0,17.8,29.63,WSW,248,19.9,25.3,80,0.00,,,0.00,WUHU216HW,2013-01-31 07:06:00,
2013-01-31 02:11:00,23.0,18.4,29.63,West,270,27.5,27.5,82,0.00,,,0.00,WUHU216HW,2013-01-31 07:11:00,
2013-01-31 02:16:00,22.9,18.2,29.63,WNW,293,23.5,27.5,82,0.00,,,0.00,WUHU216HW,2013-01-31 07:16:00,
2013-01-31 02:21:00,22.9,18.2,29.63,West,270,21.3,26.6,82,0.00,,,0.00,WUHU216HW,2013-01-31 07:21:00,
2013-01-31 02:26:00,23.0,18.4,29.64,SW,225,22.1,22.1,82,0.00,,,0.00,WUHU216HW,2013-01-31 07:26:00,
2013-01-31 02:31:00,23.0,17.8,29.64,WSW,248,18.3,23.7,80,0.00,,,0.00,WUHU216HW,2013-01-31 07:31:00,
2013-01-31 02:36:00,23.0,18.1,29.64,WSW,248,23.7,23.9,81,0.00,,,0.00,WUHU216HW,2013-01-31 07:36:00,
2013-01-31 02:41:00,22.9,17.9,29.64,WSW,248,24.6,27.3,81,0.00,,,0.00,WUHU216HW,2013-01-31 07:41:00,
2013-01-31 02:46:00,22.7,17.5,29.64,WSW,248,21.7,27.3,80,0.00,,,0.00,WUHU216HW,2013-01-31 07:46:00,
2013-01-31 02:51:00,22.7,16.8,29.65,West,270,19.5,28.2,78,0.00,,,0.00,WUHU216HW,2013-01-31 07:51:00,
2013-01-31 02:56:00,22.7,16.8,29.65,WNW,293,22.4,28.2,78,0.00,,,0.00,WUHU216HW,2013-01-31 07:56:00,
2013-01-31 03:01:00,22.7,17.2,29.65,WNW,293,25.9,26.6,79,0.00,,,0.00,WUHU216HW,2013-01-31 08:01:00,
2013-01-31 03:06:00,22.7,16.8,29.65,WNW,293,20.4,26.6,78,0.00,,,0.00,WUHU216HW,2013-01-31 08:06:00,
2013-01-31 03:11:00,22.7,16.6,29.66,SW,225,21.7,27.7,77,0.00,,,0.00,WUHU216HW,2013-01-31 08:11:00,
2013-01-31 03:16:00,22.7,16.8,29.66,WNW,293,19.2,27.7,78,0.00,,,0.00,WUHU216HW,2013-01-31 08:16:00,
2013-01-31 03:21:00,22.5,17.3,29.66,West,270,25.3,25.3,80,0.00,,,0.00,WUHU216HW,2013-01-31 08:21:00,
2013-01-31 03:26:00,22.3,17.6,29.66,WNW,293,24.4,25.3,82,0.00,,,0.00,WUHU216HW,2013-01-31 08:26:00,
2013-01-31 03:31:00,22.1,17.5,29.66,WNW,293,22.8,24.4,82,0.00,,,0.00,WUHU216HW,2013-01-31 08:31:00,
2013-01-31 03:36:00,22.1,17.7,29.67,West,270,15.2,23.3,83,0.00,,,0.00,WUHU216HW,2013-01-31 08:36:00,
2013-01-31 03:41:00,22.1,17.7,29.67,West,270,22.4,25.5,83,0.00,,,0.00,WUHU216HW,2013-01-31 08:41:00,
2013-01-31 03:46:00,22.1,17.5,29.67,WNW,293,20.4,25.9,82,0.00,,,0.00,WUHU216HW,2013-01-31 08:46:00,
2013-01-31 03:51:00,22.0,18.1,29.67,WNW,293,21.0,25.9,85,0.00,,,0.00,WUHU216HW,2013-01-31 08:51:00,
2013-01-31 03:56:00,21.8,17.9,29.67,WNW,293,27.1,27.1,85,0.00,,,0.00,WUHU216HW,2013-01-31 08:56:00,
2013-01-31 04:01:00,21.8,17.6,29.67,WNW,293,18.6,27.1,84,0.00,,,0.00,WUHU216HW,2013-01-31 09:01:00,
2013-01-31 04:06:00,21.8,18.5,29.68,West,270,18.6,24.8,87,0.00,,,0.00,WUHU216HW,2013-01-31 09:06:00,
2013-01-31 04:11:00,21.4,18.9,29.68,West,270,21.9,23.3,90,0.00,,,0.00,WUHU216HW,2013-01-31 09:11:00,
2013-01-31 04:16:00,21.2,19.0,29.68,West,270,24.8,26.2,91,0.00,,,0.00,WUHU216HW,2013-01-31 09:16:00,
2013-01-31 04:21:00,21.4,19.2,29.68,West,270,21.7,26.2,91,0.00,,,0.00,WUHU216HW,2013-01-31 09:21:00,
2013-01-31 04:26:00,21.4,18.9,29.68,West,270,20.8,23.5,90,0.00,,,0.00,WUHU216HW,2013-01-31 09:26:00,
2013-01-31 04:31:00,21.2,18.5,29.68,West,270,19.9,23.5,89,0.00,,,0.00,WUHU216HW,2013-01-31 09:31:00,
2013-01-31 04:36:00,21.4,17.8,29.69,West,270,15.4,24.4,86,0.00,,,0.00,WUHU216HW,2013-01-31 09:36:00,
2013-01-31 04:41:00,21.6,17.5,29.69,WSW,248,19.2,24.4,84,0.00,,,0.00,WUHU216HW,2013-01-31 09:41:00,
2013-01-31 04:46:00,21.6,17.2,29.69,West,270,31.5,31.5,83,0.00,,,0.00,WUHU216HW,2013-01-31 09:46:00,
2013-01-31 04:51:00,21.4,16.7,29.69,West,270,25.7,31.5,82,0.00,,,0.00,WUHU216HW,2013-01-31 09:51:00,
2013-01-31 04:56:00,21.6,16.9,29.69,WSW,248,16.6,28.4,82,0.00,,,0.00,WUHU216HW,2013-01-31 09:56:00,
2013-01-31 05:01:00,21.6,16.9,29.69,West,270,19.0,28.4,82,0.00,,,0.00,WUHU216HW,2013-01-31 10:01:00,
2013-01-31 05:06:00,21.4,17.6,29.70,West,270,19.5,27.1,85,0.00,,,0.00,WUHU216HW,2013-01-31 10:06:00,
2013-01-31 05:11:00,21.4,17.3,29.70,WSW,248,15.4,27.1,84,0.00,,,0.00,WUHU216HW,2013-01-31 10:11:00,
2013-01-31 05:16:00,21.4,17.3,29.70,WSW,248,19.5,21.9,84,0.00,,,0.00,WUHU216HW,2013-01-31 10:16:00,
2013-01-31 05:21:00,21.4,17.3,29.70,WSW,248,19.5,19.5,84,0.00,,,0.00,WUHU216HW,2013-01-31 10:21:00,
2013-01-31 05:48:00,21.1,18.0,29.71,West,270,17.2,23.7,88,0.00,,,0.00,WUHU216HW,2013-01-31 10:48:00,
2013-01-31 05:53:00,20.9,18.1,29.71,WNW,293,15.9,23.7,89,0.00,,,0.00,WUHU216HW,2013-01-31 10:53:00,
2013-01-31 05:58:00,21.2,17.9,29.72,West,270,13.4,21.9,87,0.00,,,0.00,WUHU216HW,2013-01-31 10:58:00,
2013-01-31 06:03:00,21.2,17.4,29.72,West,270,17.0,21.7,85,0.00,,,0.00,WUHU216HW,2013-01-31 11:03:00,
2013-01-31 06:08:00,21.1,17.2,29.72,SW,225,19.7,27.5,85,0.00,,,0.00,WUHU216HW,2013-01-31 11:08:00,
2013-01-31 06:13:00,21.2,17.4,29.72,WSW,248,18.1,27.5,85,0.00,,,0.00,WUHU216HW,2013-01-31 11:13:00,
2013-01-31 06:18:00,21.1,17.2,29.72,WSW,248,19.7,27.3,85,0.00,,,0.00,WUHU216HW,2013-01-31 11:18:00,
2013-01-31 06:23:00,20.9,17.3,29.73,WSW,248,18.3,27.3,86,0.00,,,0.00,WUHU216HW,2013-01-31 11:23:00,
2013-01-31 06:28:00,20.5,17.7,29.73,West,270,23.3,25.5,89,0.00,,,0.00,WUHU216HW,2013-01-31 11:28:00,
2013-01-31 06:33:00,20.3,17.8,29.73,West,270,20.1,25.5,90,0.00,,,0.00,WUHU216HW,2013-01-31 11:33:00,
2013-01-31 06:38:00,20.3,17.8,29.73,West,270,19.5,23.7,90,0.00,,,0.00,WUHU216HW,2013-01-31 11:38:00,
2013-01-31 06:43:00,20.3,18.1,29.73,West,270,14.3,23.7,91,0.00,,,0.00,WUHU216HW,2013-01-31 11:43:00,
2013-01-31 06:48:00,20.3,18.1,29.74,West,270,16.6,23.7,91,0.00,,,0.00,WUHU216HW,2013-01-31 11:48:00,
2013-01-31 06:53:00,20.3,18.1,29.74,West,270,23.9,23.9,91,0.00,,,0.00,WUHU216HW,2013-01-31 11:53:00,
2013-01-31 06:58:00,20.3,18.1,29.74,WSW,248,23.0,23.9,91,0.00,,,0.00,WUHU216HW,2013-01-31 11:58:00,
2013-01-31 07:03:00,20.2,17.6,29.75,West,270,28.4,28.4,90,0.00,,,0.00,WUHU216HW,2013-01-31 12:03:00,
2013-01-31 07:08:00,19.8,17.6,29.75,West,270,22.6,28.4,91,0.00,,,0.00,WUHU216HW,2013-01-31 12:08:00,
2013-01-31 07:13:00,19.8,17.6,29.75,WSW,248,27.3,27.3,91,0.00,,,0.00,WUHU216HW,2013-01-31 12:13:00,
2013-01-31 07:18:00,19.8,17.6,29.75,WSW,248,19.9,27.3,91,0.00,,,0.00,WUHU216HW,2013-01-31 12:18:00,
2013-01-31 07:23:00,19.8,17.6,29.76,WSW,248,18.3,25.3,91,0.00,,,0.00,WUHU216HW,2013-01-31 12:23:00,
2013-01-31 07:28:00,19.8,17.6,29.76,West,270,22.8,23.5,91,0.00,,,0.00,WUHU216HW,2013-01-31 12:28:00,
2013-01-31 07:33:00,20.0,17.5,29.76,West,270,11.9,22.8,90,0.00,,,0.00,WUHU216HW,2013-01-31 12:33:00,
2013-01-31 07:38:00,20.0,17.2,29.76,West,270,17.2,23.7,89,0.00,,,0.00,WUHU216HW,2013-01-31 12:38:00,
2013-01-31 07:43:00,19.8,17.3,29.76,WSW,248,19.2,23.7,90,0.00,,,0.00,WUHU216HW,2013-01-31 12:43:00,
2013-01-31 07:48:00,19.8,17.3,29.76,WNW,293,15.4,21.5,90,0.00,,,0.00,WUHU216HW,2013-01-31 12:48:00,
2013-01-31 07:53:00,19.8,17.0,29.77,WNW,293,15.2,20.8,89,0.00,,,0.00,WUHU216HW,2013-01-31 12:53:00,
2013-01-31 07:58:00,19.6,16.8,29.77,West,270,16.6,20.8,89,0.00,,,0.00,WUHU216HW,2013-01-31 12:58:00,
2013-01-31 08:03:00,19.6,16.8,29.77,WSW,248,18.6,18.6,89,0.00,,,0.00,WUHU216HW,2013-01-31 13:03:00,
2013-01-31 08:08:00,19.6,16.8,29.77,WSW,248,16.8,18.6,89,0.00,,,0.00,WUHU216HW,2013-01-31 13:08:00,
2013-01-31 08:13:00,19.4,16.9,29.77,West,270,15.4,23.7,90,0.00,,,0.00,WUHU216HW,2013-01-31 13:13:00,
2013-01-31 08:18:00,19.4,16.7,29.77,West,270,17.9,23.7,89,0.00,,,0.00,WUHU216HW,2013-01-31 13:18:00,
2013-01-31 08:23:00,19.4,16.9,29.78,WSW,248,18.6,23.5,90,0.00,,,0.00,WUHU216HW,2013-01-31 13:23:00,
2013-01-31 08:28:00,19.1,16.6,29.78,WSW,248,25.1,25.1,90,0.00,,,0.00,WUHU216HW,2013-01-31 13:28:00,
2013-01-31 08:33:00,19.3,16.7,29.78,West,270,21.5,25.1,90,0.00,,,0.00,WUHU216HW,2013-01-31 13:33:00,
2013-01-31 08:38:00,19.1,16.6,29.78,WSW,248,15.0,21.7,90,0.00,,,0.00,WUHU216HW,2013-01-31 13:38:00,
2013-01-31 08:43:00,19.1,16.8,29.79,WSW,248,15.2,22.1,91,0.00,,,0.00,WUHU216HW,2013-01-31 13:43:00,
2013-01-31 08:48:00,19.1,16.6,29.79,WSW,248,20.8,22.1,90,0.00,,,0.00,WUHU216HW,2013-01-31 13:48:00,
2013-01-31 08:53:00,19.1,16.6,29.79,West,270,14.8,20.8,90,0.00,,,0.00,WUHU216HW,2013-01-31 13:53:00,
2013-01-31 08:58:00,19.1,16.8,29.80,WSW,248,15.9,20.6,91,0.00,,,0.00,WUHU216HW,2013-01-31 13:58:00,
2013-01-31 09:03:00,18.9,16.7,29.80,WSW,248,20.6,23.9,91,0.00,,,0.00,WUHU216HW,2013-01-31 14:03:00,
2013-01-31 09:08:00,18.9,16.7,29.80,WSW,248,13.4,23.9,91,0.00,,,0.00,WUHU216HW,2013-01-31 14:08:00,
2013-01-31 09:13:00,18.9,16.7,29.80,WSW,248,20.1,21.0,91,0.00,,,0.00,WUHU216HW,2013-01-31 14:13:00,
2013-01-31 09:18:00,18.9,16.4,29.81,West,270,17.9,21.0,90,0.00,,,0.00,WUHU216HW,2013-01-31 14:18:00,
2013-01-31 09:23:00,18.9,16.4,29.81,WSW,248,19.5,19.5,90,0.00,,,0.00,WUHU216HW,2013-01-31 14:23:00,
2013-01-31 09:28:00,18.9,16.7,29.81,WSW,248,17.7,19.5,91,0.00,,,0.00,WUHU216HW,2013-01-31 14:28:00,
2013-01-31 09:33:00,18.9,16.4,29.81,West,270,17.9,18.6,90,0.00,,,0.00,WUHU216HW,2013-01-31 14:33:00,
2013-01-31 09:38:00,19.1,16.8,29.82,WSW,248,16.6,18.6,91,0.00,,,0.00,WUHU216HW,2013-01-31 14:38:00,
2013-01-31 09:43:00,19.1,16.6,29.82,WSW,248,18.8,22.6,90,0.00,,,0.00,WUHU216HW,2013-01-31 14:43:00,
2013-01-31 09:48:00,19.1,16.6,29.82,WSW,248,21.5,22.6,90,0.00,,,0.00,WUHU216HW,2013-01-31 14:48:00,
2013-01-31 09:53:00,19.1,16.6,29.83,WSW,248,16.3,21.5,90,0.00,,,0.00,WUHU216HW,2013-01-31 14:53:00,
2013-01-31 09:58:00,18.9,16.4,29.83,WSW,248,17.0,22.4,90,0.00,,,0.00,WUHU216HW,2013-01-31 14:58:00,
2013-01-31 10:03:00,19.1,16.8,29.83,WSW,248,19.9,22.4,91,0.00,,,0.00,WUHU216HW,2013-01-31 15:03:00,
2013-01-31 10:08:00,19.1,16.6,29.83,West,270,20.8,22.1,90,0.00,,,0.00,WUHU216HW,2013-01-31 15:08:00,
2013-01-31 10:13:00,19.1,16.6,29.83,WSW,248,21.0,22.1,90,0.00,,,0.00,WUHU216HW,2013-01-31 15:13:00,
2013-01-31 10:18:00,18.9,16.4,29.84,WSW,248,16.8,23.0,90,0.00,,,0.00,WUHU216HW,2013-01-31 15:18:00,
2013-01-31 10:23:00,19.1,16.6,29.84,West,270,21.5,23.0,90,0.00,,,0.00,WUHU216HW,2013-01-31 15:23:00,
2013-01-31 10:28:00,19.1,16.8,29.84,West,270,18.8,21.7,91,0.00,,,0.00,WUHU216HW,2013-01-31 15:28:00,
2013-01-31 10:33:00,19.4,16.9,29.84,West,270,14.5,20.8,90,0.00,,,0.00,WUHU216HW,2013-01-31 15:33:00,
2013-01-31 10:38:00,19.4,16.9,29.85,West,270,23.0,23.0,90,0.00,,,0.00,WUHU216HW,2013-01-31 15:38:00,
2013-01-31 10:43:00,19.8,17.3,29.85,West,270,15.9,23.0,90,0.00,,,0.00,WUHU216HW,2013-01-31 15:43:00,
2013-01-31 10:48:00,19.6,16.6,29.85,WSW,248,20.4,23.7,88,0.00,,,0.00,WUHU216HW,2013-01-31 15:48:00,
2013-01-31 10:53:00,19.8,16.7,29.85,WSW,248,17.9,23.7,88,0.00,,,0.00,WUHU216HW,2013-01-31 15:53:00,
2013-01-31 10:58:00,19.6,16.8,29.86,WSW,248,20.8,23.3,89,0.00,,,0.00,WUHU216HW,2013-01-31 15:58:00,
2013-01-31 11:03:00,19.4,16.7,29.86,WSW,248,24.4,24.4,89,0.00,,,0.00,WUHU216HW,2013-01-31 16:03:00,
2013-01-31 11:08:00,19.3,16.7,29.86,WSW,248,22.1,24.4,90,0.00,,,0.00,WUHU216HW,2013-01-31 16:08:00,
2013-01-31 11:13:00,19.3,16.7,29.87,WSW,248,15.7,23.7,90,0.00,,,0.00,WUHU216HW,2013-01-31 16:13:00,
2013-01-31 11:18:00,19.3,16.7,29.87,West,270,17.9,23.7,90,0.00,,,0.00,WUHU216HW,2013-01-31 16:18:00,
2013-01-31 11:23:00,19.6,17.1,29.87,WSW,248,19.0,19.0,90,0.00,,,0.00,WUHU216HW,2013-01-31 16:23:00,
2013-01-31 11:28:00,19.6,16.6,29.87,West,270,18.8,23.0,88,0.00,,,0.00,WUHU216HW,2013-01-31 16:28:00,
2013-01-31 11:33:00,19.8,17.3,29.87,West,270,15.7,23.0,90,0.00,,,0.00,WUHU216HW,2013-01-31 16:33:00,
2013-01-31 11:38:00,20.2,17.4,29.87,West,270,17.2,20.8,89,0.00,,,0.00,WUHU216HW,2013-01-31 16:38:00,
2013-01-31 11:43:00,20.5,17.5,29.88,WSW,248,15.0,17.7,88,0.00,,,0.00,WUHU216HW,2013-01-31 16:43:00,
2013-01-31 11:48:00,20.5,17.2,29.88,WSW,248,19.7,19.7,87,0.00,,,0.00,WUHU216HW,2013-01-31 16:48:00,
2013-01-31 11:53:00,20.5,17.2,29.87,West,270,16.3,19.7,87,0.00,,,0.00,WUHU216HW,2013-01-31 16:53:00,
2013-01-31 11:58:00,20.5,17.5,29.88,WSW,248,19.5,19.5,88,0.00,,,0.00,WUHU216HW,2013-01-31 16:58:00,
2013-01-31 12:03:00,20.5,17.2,29.87,WSW,248,15.7,19.5,87,0.00,,,0.00,WUHU216HW,2013-01-31 17:03:00,
2013-01-31 12:08:00,20.5,17.2,29.88,WSW,248,12.1,19.2,87,0.00,,,0.00,WUHU216HW,2013-01-31 17:08:00,
2013-01-31 12:13:00,20.9,17.6,29.88,WSW,248,11.4,17.0,87,0.00,,,0.00,WUHU216HW,2013-01-31 17:13:00,
2013-01-31 12:18:00,21.2,17.6,29.88,WSW,248,16.3,16.3,86,0.00,,,0.00,WUHU216HW,2013-01-31 17:18:00,
2013-01-31 12:23:00,20.9,17.0,29.88,West,270,18.1,18.1,85,0.00,,,0.00,WUHU216HW,2013-01-31 17:23:00,
2013-01-31 12:28:00,20.5,16.4,29.88,West,270,21.0,21.0,84,0.00,,,0.00,WUHU216HW,2013-01-31 17:28:00,
2013-01-31 12:33:00,20.5,16.4,29.88,West,270,22.8,23.7,84,0.00,,,0.00,WUHU216HW,2013-01-31 17:33:00,
2013-01-31 12:38:00,20.3,16.2,29.88,WSW,248,20.4,23.7,84,0.00,,,0.00,WUHU216HW,2013-01-31 17:38:00,
2013-01-31 12:43:00,20.5,16.1,29.88,West,270,16.1,22.1,83,0.00,,,0.00,WUHU216HW,2013-01-31 17:43:00,
2013-01-31 12:48:00,20.7,16.0,29.88,West,270,20.1,21.5,82,0.00,,,0.00,WUHU216HW,2013-01-31 17:48:00,
2013-01-31 12:53:00,20.9,17.0,29.88,WSW,248,21.5,24.4,85,0.00,,,0.00,WUHU216HW,2013-01-31 17:53:00,
2013-01-31 12:58:00,20.5,16.9,29.88,WSW,248,15.0,24.4,86,0.00,,,0.00,WUHU216HW,2013-01-31 17:58:00,
2013-01-31 13:03:00,20.5,16.9,29.88,WSW,248,13.2,19.2,86,0.00,,,0.00,WUHU216HW,2013-01-31 18:03:00,
2013-01-31 13:08:00,20.5,16.9,29.89,WSW,248,16.1,18.3,86,0.00,,,0.00,WUHU216HW,2013-01-31 18:08:00,
2013-01-31 13:13:00,20.0,16.7,29.89,West,270,17.9,22.1,87,0.00,,,0.00,WUHU216HW,2013-01-31 18:13:00,
2013-01-31 13:18:00,19.8,16.7,29.89,West,270,19.5,22.1,88,0.00,,,0.00,WUHU216HW,2013-01-31 18:18:00,
2013-01-31 13:23:00,19.8,16.2,29.89,WNW,293,19.2,20.6,86,0.00,,,0.00,WUHU216HW,2013-01-31 18:23:00,
2013-01-31 13:28:00,19.6,16.0,29.89,West,270,15.7,19.2,86,0.00,,,0.00,WUHU216HW,2013-01-31 18:28:00,
2013-01-31 13:33:00,19.8,15.9,29.89,WSW,248,20.6,20.6,85,0.00,,,0.00,WUHU216HW,2013-01-31 18:33:00,
2013-01-31 13:38:00,20.3,15.7,29.89,WSW,248,21.0,21.0,82,0.00,,,0.00,WUHU216HW,2013-01-31 18:38:00,
2013-01-31 13:43:00,20.2,15.5,29.89,West,270,16.3,21.7,82,0.00,,,0.00,WUHU216HW,2013-01-31 18:43:00,
2013-01-31 13:48:00,20.3,15.7,29.89,WSW,248,16.3,21.7,82,0.00,,,0.00,WUHU216HW,2013-01-31 18:48:00,
2013-01-31 13:53:00,20.5,16.1,29.89,WSW,248,11.6,21.5,83,0.00,,,0.00,WUHU216HW,2013-01-31 18:53:00,
2013-01-31 13:58:00,20.7,16.3,29.90,WSW,248,12.3,16.8,83,0.00,,,0.00,WUHU216HW,2013-01-31 18:58:00,
2013-01-31 14:03:00,20.9,16.5,29.90,WSW,248,12.3,16.6,83,0.00,,,0.00,WUHU216HW,2013-01-31 19:03:00,
2013-01-31 14:08:00,20.9,16.2,29.90,WSW,248,18.8,18.8,82,0.00,,,0.00,WUHU216HW,2013-01-31 19:08:00,
2013-01-31 14:13:00,20.5,15.8,29.90,WSW,248,19.5,19.5,82,0.00,,,0.00,WUHU216HW,2013-01-31 19:13:00,
2013-01-31 14:18:00,20.0,15.8,29.90,West,270,13.4,20.8,84,0.00,,,0.00,WUHU216HW,2013-01-31 19:18:00,
2013-01-31 14:23:00,20.3,16.2,29.91,WSW,248,13.4,20.8,84,0.00,,,0.00,WUHU216HW,2013-01-31 19:23:00,
2013-01-31 14:28:00,20.5,15.8,29.91,WSW,248,15.2,17.2,82,0.00,,,0.00,WUHU216HW,2013-01-31 19:28:00,
2013-01-31 14:33:00,20.3,15.1,29.91,WSW,248,18.6,18.6,80,0.00,,,0.00,WUHU216HW,2013-01-31 19:33:00,
2013-01-31 14:38:00,20.2,14.7,29.91,WSW,248,18.6,19.2,79,0.00,,,0.00,WUHU216HW,2013-01-31 19:38:00,
2013-01-31 14:43:00,20.3,14.5,29.91,West,270,13.0,19.9,78,0.00,,,0.00,WUHU216HW,2013-01-31 19:43:00,
2013-01-31 14:48:00,20.3,13.9,29.91,West,270,17.2,19.9,76,0.00,,,0.00,WUHU216HW,2013-01-31 19:48:00,
2013-01-31 14:53:00,20.5,14.0,29.91,West,270,15.0,19.9,76,0.00,,,0.00,WUHU216HW,2013-01-31 19:53:00,
2013-01-31 14:58:00,20.5,13.5,29.91,WSW,248,14.5,19.9,74,0.00,,,0.00,WUHU216HW,2013-01-31 19:58:00,
2013-01-31 15:03:00,20.9,13.9,29.92,West,270,14.1,18.8,74,0.00,,,0.00,WUHU216HW,2013-01-31 20:03:00,
2013-01-31 15:08:00,20.7,13.7,29.91,West,270,12.1,18.6,74,0.00,,,0.00,WUHU216HW,2013-01-31 20:08:00,
2013-01-31 15:13:00,20.9,14.1,29.92,WSW,248,18.6,18.6,75,0.00,,,0.00,WUHU216HW,2013-01-31 20:13:00,
2013-01-31 15:18:00,20.5,13.5,29.92,WNW,293,13.4,18.6,74,0.00,,,0.00,WUHU216HW,2013-01-31 20:18:00,
2013-01-31 15:23:00,20.5,13.5,29.92,WSW,248,15.0,17.9,74,0.00,,,0.00,WUHU216HW,2013-01-31 20:23:00,
2013-01-31 15:28:00,20.7,13.7,29.92,West,270,11.2,20.1,74,0.00,,,0.00,WUHU216HW,2013-01-31 20:28:00,
2013-01-31 15:33:00,20.9,15.0,29.92,WSW,248,12.8,20.1,78,0.00,,,0.00,WUHU216HW,2013-01-31 20:33:00,
2013-01-31 15:38:00,20.9,15.4,29.93,WSW,248,17.2,18.6,79,0.00,,,0.00,WUHU216HW,2013-01-31 20:38:00,
2013-01-31 15:43:00,20.3,14.9,29.93,WSW,248,14.8,19.5,79,0.00,,,0.00,WUHU216HW,2013-01-31 20:43:00,
2013-01-31 15:48:00,19.8,15.4,29.93,WSW,248,11.6,19.5,83,0.00,,,0.00,WUHU216HW,2013-01-31 20:48:00,
2013-01-31 15:53:00,19.6,15.5,29.93,WSW,248,20.1,20.1,84,0.00,,,0.00,WUHU216HW,2013-01-31 20:53:00,
2013-01-31 15:58:00,19.3,15.9,29.93,WNW,293,17.0,20.1,87,0.00,,,0.00,WUHU216HW,2013-01-31 20:58:00,
2013-01-31 16:03:00,19.4,15.8,29.93,WSW,248,16.8,18.6,86,0.00,,,0.00,WUHU216HW,2013-01-31 21:03:00,
2013-01-31 16:08:00,19.3,15.7,29.94,West,270,20.1,20.1,86,0.00,,,0.00,WUHU216HW,2013-01-31 21:08:00,
2013-01-31 16:14:00,18.7,15.4,29.94,WSW,248,17.9,23.7,87,0.00,,,0.00,WUHU216HW,2013-01-31 21:14:00,
2013-01-31 16:19:00,18.7,15.9,29.94,WSW,248,9.4,23.7,89,0.00,,,0.00,WUHU216HW,2013-01-31 21:19:00,
2013-01-31 16:24:00,18.4,15.6,29.94,West,270,22.6,22.6,89,0.00,,,0.00,WUHU216HW,2013-01-31 21:24:00,
2013-01-31 16:29:00,18.0,15.2,29.94,WSW,248,18.8,22.8,89,0.00,,,0.00,WUHU216HW,2013-01-31 21:29:00,
2013-01-31 16:34:00,17.8,15.3,29.94,West,270,14.5,22.8,90,0.00,,,0.00,WUHU216HW,2013-01-31 21:34:00,
2013-01-31 16:39:00,18.0,15.5,29.94,West,270,14.8,22.6,90,0.00,,,0.00,WUHU216HW,2013-01-31 21:39:00,
2013-01-31 16:44:00,18.2,15.7,29.94,WSW,248,11.6,17.9,90,0.00,,,0.00,WUHU216HW,2013-01-31 21:44:00,
2013-01-31 16:49:00,18.2,15.7,29.94,WSW,248,14.5,16.1,90,0.00,,,0.00,WUHU216HW,2013-01-31 21:49:00,
2013-01-31 16:54:00,18.0,15.2,29.94,WSW,248,15.4,19.2,89,0.00,,,0.00,WUHU216HW,2013-01-31 21:54:00,
2013-01-31 16:59:00,18.0,14.9,29.95,WSW,248,13.9,19.2,88,0.00,,,0.00,WUHU216HW,2013-01-31 21:59:00,
2013-01-31 17:04:00,17.8,14.8,29.95,WSW,248,15.0,18.6,88,0.00,,,0.00,WUHU216HW,2013-01-31 22:04:00,
2013-01-31 17:09:00,17.6,14.6,29.95,West,270,17.2,17.2,88,0.00,,,0.00,WUHU216HW,2013-01-31 22:09:00,
2013-01-31 17:14:00,17.6,14.9,29.95,West,270,15.4,19.5,89,0.00,,,0.00,WUHU216HW,2013-01-31 22:14:00,
2013-01-31 17:19:00,17.6,14.9,29.95,West,270,10.5,19.5,89,0.00,,,0.00,WUHU216HW,2013-01-31 22:19:00,
2013-01-31 17:24:00,17.5,14.7,29.95,West,270,12.1,15.0,89,0.00,,,0.00,WUHU216HW,2013-01-31 22:24:00,
2013-01-31 17:29:00,17.5,14.7,29.96,West,270,12.3,15.0,89,0.00,,,0.00,WUHU216HW,2013-01-31 22:29:00,
2013-01-31 17:34:00,17.5,14.7,29.96,West,270,16.6,16.6,89,0.00,,,0.00,WUHU216HW,2013-01-31 22:34:00,
2013-01-31 17:39:00,16.9,14.4,29.96,WSW,248,15.0,17.9,90,0.00,,,0.00,WUHU216HW,2013-01-31 22:39:00,
2013-01-31 17:44:00,16.9,14.4,29.96,West,270,14.1,17.9,90,0.00,,,0.00,WUHU216HW,2013-01-31 22:44:00,
2013-01-31 17:49:00,16.9,14.1,29.96,West,270,16.3,16.3,89,0.00,,,0.00,WUHU216HW,2013-01-31 22:49:00,
2013-01-31 17:54:00,16.9,14.1,29.96,WSW,248,15.4,16.3,89,0.00,,,0.00,WUHU216HW,2013-01-31 22:54:00,
2013-01-31 17:59:00,16.9,14.1,29.96,WSW,248,15.4,15.4,89,0.00,,,0.00,WUHU216HW,2013-01-31 22:59:00,
2013-01-31 18:04:00,16.9,13.9,29.97,WSW,248,14.3,14.3,88,0.00,,,0.00,WUHU216HW,2013-01-31 23:04:00,
2013-01-31 18:09:00,16.9,13.6,29.97,WSW,248,12.8,16.1,87,0.00,,,0.00,WUHU216HW,2013-01-31 23:09:00,
2013-01-31 18:14:00,16.9,13.6,29.97,West,270,14.3,17.0,87,0.00,,,0.00,WUHU216HW,2013-01-31 23:14:00,
2013-01-31 18:19:00,16.9,13.6,29.97,WSW,248,14.8,17.0,87,0.00,,,0.00,WUHU216HW,2013-01-31 23:19:00,
2013-01-31 18:24:00,16.7,13.7,29.98,West,270,12.8,16.3,88,0.00,,,0.00,WUHU216HW,2013-01-31 23:24:00,
2013-01-31 18:29:00,16.7,14.0,29.98,WSW,248,15.7,16.3,89,0.00,,,0.00,WUHU216HW,2013-01-31 23:29:00,
2013-01-31 18:34:00,16.7,14.0,29.98,West,270,14.1,16.3,89,0.00,,,0.00,WUHU216HW,2013-01-31 23:34:00,
2013-01-31 18:39:00,16.7,14.2,29.98,WSW,248,9.8,14.8,90,0.00,,,0.00,WUHU216HW,2013-01-31 23:39:00,
2013-01-31 18:44:00,16.7,14.2,29.98,West,270,16.6,16.6,90,0.00,,,0.00,WUHU216HW,2013-01-31 23:44:00,
2013-01-31 18:49:00,16.6,14.0,29.98,West,270,15.0,16.6,90,0.00,,,0.00,WUHU216HW,2013-01-31 23:49:00,
2013-01-31 18:54:00,16.6,14.0,29.99,WSW,248,11.4,15.0,90,0.00,,,0.00,WUHU216HW,2013-01-31 23:54:00,
2013-01-31 18:59:00,16.6,14.0,29.99,West,270,11.2,13.6,90,0.00,,,0.00,WUHU216HW,2013-01-31 23:59:00,
2013-01-31 19:04:00,16.7,14.2,29.99,West,270,11.4,12.8,90,0.00,,,0.00,WUHU216HW,2013-02-01 00:04:00,
2013-01-31 19:09:00,16.7,14.2,29.99,West,270,9.4,14.1,90,0.00,,,0.00,WUHU216HW,2013-02-01 00:09:00,
2013-01-31 19:14:00,16.7,14.2,30.00,West,270,10.5,14.1,90,0.00,,,0.00,WUHU216HW,2013-02-01 00:14:00,
2013-01-31 19:19:00,16.7,14.2,30.00,West,270,9.4,11.6,90,0.00,,,0.00,WUHU216HW,2013-02-01 00:19:00,
2013-01-31 19:24:00,16.7,14.2,30.00,WNW,293,10.3,14.8,90,0.00,,,0.00,WUHU216HW,2013-02-01 00:24:00,
2013-01-31 19:29:00,16.7,14.2,30.00,WNW,293,15.0,17.4,90,0.00,,,0.00,WUHU216HW,2013-02-01 00:29:00,
2013-01-31 19:34:00,16.6,13.8,30.00,West,270,12.5,18.3,89,0.00,,,0.00,WUHU216HW,2013-02-01 00:34:00,
2013-01-31 19:39:00,16.6,13.8,30.01,West,270,14.3,18.3,89,0.00,,,0.00,WUHU216HW,2013-02-01 00:39:00,
2013-01-31 19:44:00,16.4,13.6,30.01,West,270,12.3,14.3,89,0.00,,,0.00,WUHU216HW,2013-02-01 00:44:00,
2013-01-31 19:49:00,16.6,13.8,30.01,West,270,11.0,12.3,89,0.00,,,0.00,WUHU216HW,2013-02-01 00:49:00,
2013-01-31 19:55:00,16.6,13.8,30.01,WSW,248,12.3,13.4,89,0.00,,,0.00,WUHU216HW,2013-02-01 00:55:00,
2013-01-31 20:00:00,16.6,13.8,30.01,WNW,293,9.2,13.4,89,0.00,,,0.00,WUHU216HW,2013-02-01 01:00:00,
2013-01-31 20:05:00,16.6,13.8,30.02,WNW,293,15.7,15.7,89,0.00,,,0.00,WUHU216HW,2013-02-01 01:05:00,
2013-01-31 20:10:00,16.7,14.0,30.02,WNW,293,10.7,15.7,89,0.00,,,0.00,WUHU216HW,2013-02-01 01:10:00,
2013-01-31 20:15:00,16.6,14.0,30.02,WNW,293,9.8,12.5,90,0.00,,,0.00,WUHU216HW,2013-02-01 01:15:00,
2013-01-31 20:20:00,16.6,14.0,30.02,WNW,293,13.4,14.8,90,0.00,,,0.00,WUHU216HW,2013-02-01 01:20:00,
2013-01-31 20:25:00,16.2,13.7,30.02,WNW,293,9.4,15.9,90,0.00,,,0.00,WUHU216HW,2013-02-01 01:25:00,
2013-01-31 20:30:00,16.2,14.0,30.03,West,270,14.3,15.9,91,0.00,,,0.00,WUHU216HW,2013-02-01 01:30:00,
2013-01-31 20:35:00,16.2,14.0,30.03,West,270,16.6,17.2,91,0.00,,,0.00,WUHU216HW,2013-02-01 01:35:00,
2013-01-31 20:40:00,16.2,14.0,30.03,WSW,248,13.9,17.2,91,0.00,,,0.00,WUHU216HW,2013-02-01 01:40:00,
2013-01-31 20:45:00,16.2,14.0,30.03,WSW,248,13.9,13.9,91,0.00,,,0.00,WUHU216HW,2013-02-01 01:45:00,
2013-01-31 21:05:00,16.2,14.0,30.03,West,270,14.5,14.5,91,0.00,,,0.00,WUHU216HW,2013-02-01 02:05:00,
2013-01-31 21:10:00,16.0,13.8,30.04,WNW,293,11.4,17.9,91,0.00,,,0.00,WUHU216HW,2013-02-01 02:10:00,
2013-01-31 21:15:00,16.0,13.8,30.04,West,270,13.2,17.9,91,0.00,,,0.00,WUHU216HW,2013-02-01 02:15:00,
2013-01-31 21:20:00,16.0,13.8,30.04,West,270,13.0,15.0,91,0.00,,,0.00,WUHU216HW,2013-02-01 02:20:00,
2013-01-31 21:25:00,16.0,13.8,30.04,WNW,293,9.8,15.0,91,0.00,,,0.00,WUHU216HW,2013-02-01 02:25:00,
2013-01-31 21:30:00,16.0,13.8,30.04,West,270,14.1,15.9,91,0.00,,,0.00,WUHU216HW,2013-02-01 02:30:00,
2013-01-31 21:35:00,15.8,13.6,30.04,WNW,293,12.1,15.9,91,0.00,,,0.00,WUHU216HW,2013-02-01 02:35:00,
2013-01-31 21:40:00,15.8,13.6,30.04,WNW,293,12.3,15.4,91,0.00,,,0.00,WUHU216HW,2013-02-01 02:40:00,
2013-01-31 21:45:00,16.0,13.8,30.04,West,270,10.7,15.4,91,0.00,,,0.00,WUHU216HW,2013-02-01 02:45:00,
2013-01-31 21:50:00,16.0,13.8,30.04,West,270,10.7,12.8,91,0.00,,,0.00,WUHU216HW,2013-02-01 02:50:00,
2013-01-31 22:05:00,16.2,14.0,30.05,West,270,8.9,8.9,91,0.00,,,0.00,WUHU216HW,2013-02-01 03:05:00,
2013-01-31 22:10:00,16.2,14.0,30.05,West,270,9.8,11.9,91,0.00,,,0.00,WUHU216HW,2013-02-01 03:10:00,
2013-01-31 22:15:00,16.2,14.0,30.06,WNW,293,9.2,11.9,91,0.00,,,0.00,WUHU216HW,2013-02-01 03:15:00,
2013-01-31 22:20:00,16.2,14.0,30.06,West,270,9.4,11.6,91,0.00,,,0.00,WUHU216HW,2013-02-01 03:20:00,
2013-01-31 22:25:00,16.2,14.0,30.06,WNW,293,11.0,11.6,91,0.00,,,0.00,WUHU216HW,2013-02-01 03:25:00,
2013-01-31 22:30:00,16.2,14.0,30.06,West,270,9.8,11.9,91,0.00,,,0.00,WUHU216HW,2013-02-01 03:30:00,
2013-01-31 22:35:00,16.2,14.0,30.06,West,270,13.2,13.2,91,0.00,,,0.00,WUHU216HW,2013-02-01 03:35:00,
2013-01-31 22:40:00,16.0,13.8,30.06,WNW,293,9.8,13.2,91,0.00,,,0.00,WUHU216HW,2013-02-01 03:40:00,
2013-01-31 22:45:00,16.2,14.0,30.06,West,270,16.3,16.3,91,0.00,,,0.00,WUHU216HW,2013-02-01 03:45:00,
2013-01-31 22:50:00,16.0,13.8,30.06,West,270,12.8,16.3,91,0.00,,,0.00,WUHU216HW,2013-02-01 03:50:00,
2013-01-31 22:55:00,16.2,14.0,30.06,WNW,293,12.1,15.2,91,0.00,,,0.00,WUHU216HW,2013-02-01 03:55:00,
2013-01-31 23:00:00,16.2,14.0,30.06,WNW,293,12.1,14.3,91,0.00,,,0.00,WUHU216HW,2013-02-01 04:00:00,
2013-01-31 23:05:00,16.2,14.0,30.06,NW,315,12.5,14.3,91,0.00,,,0.00,WUHU216HW,2013-02-01 04:05:00,
2013-01-31 23:10:00,16.2,14.0,30.06,WNW,293,15.7,17.0,91,0.00,,,0.00,WUHU216HW,2013-02-01 04:10:00,
2013-01-31 23:15:00,16.2,14.0,30.06,WNW,293,15.0,17.0,91,0.00,,,0.00,WUHU216HW,2013-02-01 04:15:00,
2013-01-31 23:20:00,16.2,14.0,30.07,WNW,293,12.1,15.0,91,0.00,,,0.00,WUHU216HW,2013-02-01 04:20:00,
2013-01-31 23:25:00,16.2,14.0,30.07,WNW,293,12.8,14.3,91,0.00,,,0.00,WUHU216HW,2013-02-01 04:25:00,
2013-01-31 23:30:00,16.2,14.0,30.07,West,270,12.8,14.1,91,0.00,,,0.00,WUHU216HW,2013-02-01 04:30:00,
2013-01-31 23:35:00,16.2,14.0,30.07,WNW,293,10.7,14.8,91,0.00,,,0.00,WUHU216HW,2013-02-01 04:35:00,
2013-01-31 23:40:00,16.2,14.0,30.08,NW,315,11.2,14.8,91,0.00,,,0.00,WUHU216HW,2013-02-01 04:40:00,
2013-01-31 23:45:00,16.2,14.0,30.08,NW,315,16.1,16.1,91,0.00,,,0.00,WUHU216HW,2013-02-01 04:45:00,
2013-01-31 23:50:00,16.2,13.7,30.08,WNW,293,14.3,16.1,90,0.00,,,0.00,WUHU216HW,2013-02-01 04:50:00,
2013-01-31 23:55:00,16.2,13.7,30.08,WNW,293,12.5,14.5,90,0.00,,,0.00,WUHU216HW,2013-02-01 04:55:00,